User: anonymous   Login
Location: Unspecified
(0.0000°N, 0.0000°E)
Time: 18:11:25
(UTC+00:00)
Language:

LANDSAT 8 - Orbit

View from above orbital plane
View from above orbital plane
View from above satellite
View from above satellite

Ground track
Ground track

The orbit data is extracted from the following two-line orbital elements,

1 39084U 13008A   14298.18423677  .00000551  00000-0  13226-3 0  6296
2 39084 098.2090 006.6231 0000770 056.7620 303.3667 14.57119924 90383
Epoch (UTC): 25 October 2014 04:25:18
Eccentricity: 0.0000770
inclination: 98.2090°
perigee height: 702 km
apogee height: 703 km
right ascension of ascending node: 6.6231°
argument of perigee: 56.7620°
revolutions per day: 14.57119924
mean anomaly at epoch: 303.3667°
orbit number at epoch: 9038

The dashed part of the orbit path shows where the satellite is in the earth's shadow,  

DLR